This is the latest recevied weather packets stored in our database for station/object W2EH. If no packets are shown the sender has not sent any weather packets the latest 10 day(s).
| Time | Temp. | Humidity | Pressure | Rain* | Wind** | Luminosity | Snow |
|---|---|---|---|---|---|---|---|
| 1778015811 | 29.44° C | 65% | 1004.7 hPa | 0 mm | - | 656 W/m² | - |
| 1778015508 | 29.44° C | 66% | 1004.8 hPa | 0 mm | - | 579 W/m² | - |
| 1778015204 | 29.44° C | 68% | 1005 hPa | 0 mm | - | 668 W/m² | - |
| 1778014901 | 29.44° C | 66% | 1005.1 hPa | 0 mm | - | 733 W/m² | - |
| 1778014599 | 28.89° C | 68% | 1005 hPa | 0 mm | - | 680 W/m² | - |
| 1778014297 | 28.89° C | 68% | 1005.1 hPa | 0 mm | - | 332 W/m² | - |
| 1778013993 | 28.89° C | 68% | 1005.1 hPa | 0 mm | - | 327 W/m² | - |
| 1778013692 | 28.89° C | 68% | 1004.8 hPa | 0 mm | - | 269 W/m² | - |
| 1778013388 | 28.89° C | 67% | 1005.1 hPa | 0 mm | - | 264 W/m² | - |
| 1778013085 | 28.89° C | 68% | 1005.1 hPa | 0 mm | - | 786 W/m² | - |
| 1778012780 | 28.89° C | 67% | 1005.2 hPa | 0 mm | - | 621 W/m² | - |
| 1778012477 | 28.89° C | 67% | 1005.4 hPa | 0 mm | - | 619 W/m² | - |
| 1778012173 | 28.89° C | 67% | 1005.6 hPa | 0 mm | - | 621 W/m² | - |
| 1778011871 | 28.33° C | 68% | 1005.5 hPa | 0 mm | - | 739 W/m² | - |
| 1778011569 | 28.33° C | 70% | 1005.6 hPa | 0 mm | - | 737 W/m² | - |
| 1778011266 | 28.89° C | 67% | 1005.5 hPa | 0 mm | - | 661 W/m² | - |
| 1778010961 | 28.89° C | 67% | 1005.4 hPa | 0 mm | - | 822 W/m² | - |
| 1778010660 | 28.89° C | 67% | 1005.4 hPa | 0 mm | - | 766 W/m² | - |
| 1778010356 | 28.89° C | 67% | 1005.5 hPa | 0 mm | - | 861 W/m² | - |
| 1778010052 | 28.33° C | 68% | 1005.7 hPa | 0 mm | - | 827 W/m² | - |
| 1778009749 | 28.33° C | 67% | 1005.8 hPa | 0 mm | - | 776 W/m² | - |
| 1778009446 | 28.33° C | 68% | 1006 hPa | 0 mm | - | 768 W/m² | - |
| 1778009145 | 28.33° C | 69% | 1005.9 hPa | 0 mm | - | 645 W/m² | - |
| 1778008842 | 28.33° C | 69% | 1005.8 hPa | 0 mm | - | 756 W/m² | - |
| 1778008540 | 28.33° C | 69% | 1005.8 hPa | 0 mm | - | 741 W/m² | - |
* Rain latest hour (hover to see other rain measurements)
** Current wind speed in m/s (hover to see current wind gust speed)